Location: Boiro
(42.6475°N, 8.8834°W)
Time: 07:27:09
(UTC+01:00)

Vanguard 1 - Pass Details

Date: 30 November 2021
Orbit: 652 x 3830 km, 34.2° (Epoch: 21 January)

Event Time Altitude Azimuth Distance (km) Brightness Sun altitude
Rises 04:47:35 0° 260° (W) 7,956 - -43.0°
Reaches altitude 10° 04:53:08 10° 258° (WSW) 6,926 - -42.0°
Exits shadow 05:10:41 55° 230° (SW) 3,771 12.5 -38.8°
Maximum altitude 05:15:29 65° 183° (S) 3,276 12.4 -37.9°
Drops below altitude 10° 05:29:26 10° 106° (ESE) 4,603 14.2 -35.3°
Sets 05:32:18 0° 103° (ESE) 5,269 14.8 -34.8°
